STARLINK-34509

导读 | 豆包AI

STARLINK-34509是美国SpaceX公司星链(Starlink)星座的低轨通信卫星,于2025年6月23日发射升空。星链星座旨在为全球提供高速宽带互联网服务,该卫星采用平板设计,搭载Ku/Ka波段通信载荷,配备氪工质霍尔推进器,具备自主避撞能力,服役寿命约5至7年,退役后会主动离轨并在大气层完全焚毁,服务全球偏远地区网络接入。

Basic Information
目录编号:
64484
目录名称:
STARLINK-34509
国际标识:
2025-133N
轨道中心:
EARTH
卫星名称:
STARLINK-34509
卫星全名:
STARLINK-34509
卫星状态:
在轨 (已飞行264 天)
发射日期:
2025-06-23 UTC
国别 :
美国 (US)
星等 :
--
Orbit Information
数据来源 国际轨道数据
星历时间: 2026-03-14T15:42:08+0800
9小时前
查看轨道信息
半长轴: 6853.276km
偏心率: 0.0001615
轨道倾角: 53.161°
近地点辐角 80.805°
升交点赤经 95.556°
平近点角 279.313°
近地点: 474.032km
远地点: 476.246km
周期: 94.104分钟
每日圈数: 15.302255
Detailed Information
使用方式:
暂无
2D Orbit Map
3D Orbit Map
Orbit Altitude Analysis Chart
Orbit Inclination Analysis Chart
Orbit Comprehensive Analysis Chart
View Comprehensive Chart